QPF
0.06 0.05 0.05 0.04 0.04 0.02 0.02 0.02 0.02 0.03 0.04 0.05 0.05 0.04 0.03 0.04 0.04 0.03 0.03 0.02 0.03 0.03 0.04 0.04 0.05 0.05 0.03 0.04 0.05 0.05 0.05 0.04 0.03 0.03 0.04 0.06 0.07 0.07 0.07 0.05 0.04 0.03 0.03 0.02
0.07 0.05 0.05 0.03 0.02 0.02 0.03 0.02 0.02 0.02 0.03 0.04 0.04 0.04 0.03 0.02 0.03 0.02 0.02 0.02 0.02 0.02 0.02 0.03 0.04 0.04 0.03 0.02 0.03 0.03 0.04 0.04 0.04 0.04 0.04 0.04 0.05 0.06 0.07 0.07 0.07 0.05 0.03 0.02
0.07 0.05 0.05 0.05 0.02 0.02 0.04 0.03 0.02 0.02 0.03 0.04 0.05 0.05 0.04 0.03 0.02 0.01 0.01 0.02 0.02 0.02 0.02 0.03 0.04 0.04 0.04 0.03 0.02 0.02 0.01 0.02 0.03 0.03 0.03 0.03 0.03 0.05 0.07 0.09 0.09 0.08 0.07 0.05
0.06 0.04 0.04 0.05 0.03 0.02 0.03 0.03 0.01 0.01 0.02 0.04 0.05 0.06 0.05 0.03 0.02 0.02 0.01 0.02 0.03 0.02 0.02 0.02 0.02 0.02 0.02 0.03 0.02 0.01 0.01 0.02 0.03 0.03 0.03 0.02 0.03 0.04 0.05 0.08 0.10 0.09 0.07 0.05
0.05 0.05 0.04 0.05 0.04 0.02 0.02 0.01 0.01 0.02 0.02 0.02 0.03 0.03 0.03 0.03 0.03 0.02 0.01 0.01 0.02 0.02 0.02 0.01 0.01 0.01 0.01 0.01 0.01 0.01 0.01 0.01 0.02 0.03 0.03 0.03 0.03 0.04 0.04 0.04 0.06 0.08 0.09 0.08
0.04 0.04 0.04 0.05 0.04 0.02 0.01 0.03 0.04 0.04 0.04 0.03 0.01 0.01 0.01 0.01 0.01 0.01 0.01 0.00 0.01 0.01 0.01 0.01 0.01 0.00 0.00 0.00 0.01 0.01 0.02 0.01 0.02 0.03 0.04 0.03 0.02 0.03 0.03 0.03 0.04 0.05 0.06 0.07
0.04 0.04 0.03 0.03 0.04 0.04 0.03 0.04 0.07 0.08 0.07 0.05 0.01 0.00 0.00 0.00 0.00 0.00 0.00 0.00 0.00 0.00 0.01 0.00 0.00 0.00 0.00 0.00 0.00 0.01 0.02 0.02 0.02 0.03 0.05 0.05 0.03 0.03 0.02 0.02 0.02 0.03 0.03 0.05
0.03 0.04 0.03 0.03 0.05 0.05 0.04 0.03 0.04 0.04 0.03 0.02 0.01 0.01 0.00 0.00 0.00 0.00 0.00 0.00 0.00 0.00 0.00 0.00 0.00 0.00 0.00 0.00 0.00 0.00 0.01 0.02 0.03 0.04 0.06 0.07 0.05 0.03 0.02 0.02 0.02 0.03 0.04 0.04
0.02 0.02 0.02 0.02 0.02 0.03 0.04 0.03 0.02 0.02 0.01 0.00 0.01 0.01 0.01 0.00 0.00 0.00 0.00 0.00 0.00 0.00 0.00 0.00 0.00 0.00 0.00 0.00 0.00 0.00 0.01 0.01 0.02 0.04 0.07 0.09 0.08 0.05 0.04 0.04 0.04 0.03 0.04 0.04
0.01 0.01 0.01 0.02 0.01 0.02 0.02 0.02 0.01 0.02 0.01 0.00 0.00 0.01 0.01 0.01 0.00 0.00 0.00 0.00 0.00 0.00 0.00 0.00 0.00 0.00 0.00 0.00 0.00 0.00 0.01 0.02 0.03 0.05 0.06 0.08 0.08 0.06 0.04 0.04 0.05 0.05 0.04 0.05
0.00 0.01 0.01 0.01 0.01 0.02 0.01 0.01 0.01 0.01 0.01 0.00 0.00 0.01 0.01 0.01 0.00 0.00 0.00 0.00 0.00 0.00 0.00 0.00 0.00 0.00 0.00 0.01 0.01 0.01 0.01 0.01 0.02 0.04 0.06 0.06 0.06 0.06 0.04 0.02 0.02 0.03 0.04 0.04
0.00 0.00 0.01 0.01 0.01 0.01 0.01 0.01 0.01 0.00 0.00 0.00 0.00 0.00 0.00 0.01 0.00 0.00 0.00 0.01 0.01 0.00 0.00 0.01 0.01 0.01 0.01 0.01 0.01 0.01 0.01 0.01 0.02 0.02 0.03 0.03 0.03 0.03 0.03 0.02 0.02 0.02 0.03 0.03
0.00 0.00 0.00 0.00 0.00 0.00 0.00 0.00 0.00 0.00 0.00 0.00 0.00 0.00 0.00 0.00 0.00 0.00 0.00 0.01 0.01 0.01 0.01 0.01 0.01 0.01 0.02 0.02 0.01 0.01 0.01 0.01 0.01 0.01 0.01 0.01 0.02 0.02 0.02 0.02 0.03 0.03 0.03 0.02
0.00 0.00 0.00 0.00 0.00 0.00 0.00 0.00 0.00 0.00 0.00 0.00 0.00 0.00 0.00 0.00 0.00 0.00 0.00 0.00 0.00 0.01 0.01 0.01 0.01 0.01 0.01 0.01 0.01 0.01 0.01 0.01 0.01 0.01 0.01 0.01 0.01 0.01 0.01 0.02 0.03 0.04 0.04 0.03
0.00 0.00 0.00 0.00 0.00 0.00 0.00 0.00 0.00 0.00 0.00 0.00 0.00 0.00 0.01 0.00 0.00 0.00 0.01 0.00 0.00 0.00 0.01 0.01 0.01 0.02 0.01 0.01 0.01 0.00 0.01 0.01 0.01 0.01 0.01 0.01 0.02 0.02 0.02 0.02 0.03 0.04 0.05 0.05
0.00 0.00 0.00 0.00 0.00 0.00 0.00 0.00 0.00 0.00 0.00 0.00 0.00 0.00 0.01 0.00 0.00 0.00 0.00 0.00 0.00 0.00 0.01 0.01 0.01 0.01 0.01 0.01 0.01 0.01 0.01 0.01 0.01 0.01 0.01 0.01 0.02 0.03 0.04 0.04 0.04 0.04 0.05 0.06
0.00 0.00 0.00 0.00 0.00 0.00 0.00 0.00 0.00 0.00 0.00 0.00 0.00 0.01 0.00 0.00 0.00 0.00 0.00 0.00 0.00 0.00 0.00 0.01 0.01 0.02 0.01 0.01 0.01 0.01 0.01 0.01 0.01 0.01 0.01 0.02 0.02 0.03 0.04 0.03 0.03 0.04 0.05 0.06
0.00 0.00 0.01 0.00 0.00 0.00 0.00 0.00 0.00 0.00 0.00 0.00 0.00 0.00 0.00 0.00 0.00 0.00 0.00 0.00 0.00 0.00 0.00 0.01 0.01 0.02 0.02 0.01 0.01 0.00 0.01 0.01 0.01 0.02 0.02 0.02 0.02 0.03 0.03 0.03 0.02 0.03 0.04 0.05
0.00 0.00 0.01 0.01 0.00 0.00 0.00 0.00 0.00 0.00 0.00 0.00 0.00 0.00 0.00 0.00 0.00 0.00 0.00 0.00 0.00 0.00 0.00 0.00 0.01 0.01 0.02 0.01 0.01 0.01 0.01 0.01 0.02 0.02 0.03 0.02 0.02 0.02 0.03 0.03 0.02 0.02 0.03 0.03
0.00 0.01 0.01 0.01 0.00 0.00 0.00 0.00 0.00 0.00 0.00 0.00 0.00 0.00 0.00 0.00 0.00 0.00 0.00 0.00 0.00 0.00 0.00 0.01 0.01 0.00 0.01 0.01 0.02 0.02 0.02 0.02 0.02 0.02 0.02 0.02 0.02 0.02 0.03 0.02 0.02 0.02 0.02 0.03
0.01 0.01 0.01 0.00 0.00 0.00 0.00 0.00 0.00 0.00 0.00 0.00 0.00 0.00 0.00 0.00 0.00 0.00 0.00 0.00 0.00 0.00 0.00 0.00 0.00 0.00 0.00 0.01 0.02 0.02 0.02 0.02 0.02 0.02 0.02 0.02 0.03 0.03 0.03 0.02 0.02 0.01 0.01 0.02
0.00 0.00 0.00 0.00 0.00 0.00 0.00 0.00 0.00 0.00 0.00 0.00 0.00 0.00 0.00 0.00 0.00 0.00 0.00 0.00 0.00 0.00 0.00 0.00 0.00 0.00 0.01 0.01 0.02 0.02 0.02 0.02 0.02 0.02 0.02 0.03 0.03 0.02 0.01 0.01 0.01 0.01 0.00 0.00
0.00 0.00 0.00 0.00 0.00 0.00 0.00 0.00 0.00 0.00 0.00 0.00 0.00 0.00 0.00 0.00 0.00 0.00 0.00 0.00 0.00 0.00 0.01 0.01 0.01 0.01 0.01 0.01 0.01 0.02 0.02 0.01 0.02 0.02 0.02 0.02 0.02 0.01 0.01 0.00 0.00 0.00 0.00 0.00
0.00 0.00 0.00 0.00 0.00 0.00 0.00 0.00 0.00 0.00 0.00 0.00 0.00 0.00 0.00 0.00 0.00 0.00 0.00 0.00 0.00 0.00 0.00 0.01 0.00 0.01 0.01 0.01 0.01 0.01 0.01 0.01 0.01 0.01 0.02 0.01 0.01 0.01 0.00 0.00 0.00 0.00 0.00 0.00
0.00 0.00 0.00 0.00 0.00 0.00 0.00 0.00 0.00 0.00 0.00 0.00 0.00 0.00 0.00 0.00 0.00 0.00 0.00 0.00 0.00 0.00 0.00 0.00 0.00 0.00 0.00 0.01 0.01 0.01 0.01 0.01 0.01 0.01 0.01 0.01 0.00 0.00 0.00 0.00 0.00 0.00 0.00 0.00
0.00 0.00 0.00 0.00 0.00 0.00 0.00 0.00 0.00 0.00 0.00 0.00 0.00 0.00 0.00 0.00 0.00 0.00 0.00 0.00 0.00 0.00 0.00 0.00 0.00 0.00 0.00 0.00 0.00 0.00 0.00 0.00 0.00 0.00 0.00 0.00 0.00 0.00 0.00 0.00 0.00 0.00 0.00 0.00
MSLP
1026.41 1026.93 1027.51 1028.11 1028.70 1029.23 1029.71 1030.13 1030.51 1030.87 1031.22 1031.57 1031.90 1032.20 1032.43 1032.58 1032.62 1032.57 1032.45 1032.31 1032.18 1032.12 1032.18 1032.36 1032.66 1033.04 1033.47 1033.87 1034.22 1034.45 1034.58 1034.60 1034.54 1034.46 1034.38 1034.35 1034.37 1034.46 1034.57 1034.69 1034.76 1034.77 1034.70 1034.54
1027.79 1028.27 1028.75 1029.21 1029.60 1029.94 1030.21 1030.45 1030.67 1030.89 1031.14 1031.39 1031.64 1031.86 1032.02 1032.08 1032.04 1031.91 1031.72 1031.51 1031.34 1031.26 1031.30 1031.48 1031.79 1032.19 1032.65 1033.09 1033.48 1033.77 1033.96 1034.06 1034.08 1034.07 1034.07 1034.09 1034.15 1034.26 1034.38 1034.50 1034.58 1034.60 1034.56 1034.44
1029.19 1029.66 1030.08 1030.42 1030.66 1030.81 1030.89 1030.92 1030.95 1030.99 1031.06 1031.16 1031.27 1031.36 1031.40 1031.37 1031.25 1031.07 1030.84 1030.62 1030.44 1030.36 1030.41 1030.59 1030.90 1031.31 1031.76 1032.22 1032.63 1032.96 1033.21 1033.38 1033.48 1033.55 1033.62 1033.70 1033.80 1033.92 1034.06 1034.18 1034.27 1034.32 1034.32 1034.26
1030.43 1030.92 1031.32 1031.58 1031.71 1031.72 1031.63 1031.47 1031.30 1031.13 1030.99 1030.88 1030.79 1030.70 1030.60 1030.45 1030.27 1030.05 1029.82 1029.62 1029.48 1029.44 1029.52 1029.72 1030.03 1030.42 1030.85 1031.30 1031.71 1032.06 1032.35 1032.57 1032.75 1032.89 1033.02 1033.15 1033.28 1033.42 1033.57 1033.71 1033.82 1033.91 1033.98 1034.02
1031.40 1031.93 1032.32 1032.56 1032.62 1032.53 1032.32 1032.01 1031.64 1031.26 1030.90 1030.55 1030.24 1029.95 1029.68 1029.41 1029.15 1028.91 1028.71 1028.56 1028.49 1028.52 1028.64 1028.87 1029.19 1029.56 1029.97 1030.38 1030.77 1031.12 1031.42 1031.68 1031.90 1032.10 1032.27 1032.44 1032.61 1032.77 1032.93 1033.09 1033.25 1033.41 1033.56 1033.70
1032.03 1032.59 1033.00 1033.24 1033.29 1033.16 1032.87 1032.46 1031.95 1031.39 1030.81 1030.24 1029.69 1029.19 1028.74 1028.34 1028.02 1027.76 1027.59 1027.51 1027.53 1027.64 1027.84 1028.11 1028.43 1028.79 1029.16 1029.53 1029.87 1030.20 1030.49 1030.76 1031.00 1031.22 1031.43 1031.62 1031.81 1032.00 1032.18 1032.38 1032.59 1032.82 1033.06 1033.32
1032.33 1032.91 1033.34 1033.61 1033.68 1033.57 1033.26 1032.80 1032.20 1031.50 1030.75 1029.98 1029.23 1028.53 1027.90 1027.38 1026.98 1026.71 1026.57 1026.56 1026.67 1026.87 1027.14 1027.45 1027.79 1028.13 1028.46 1028.77 1029.07 1029.34 1029.61 1029.86 1030.10 1030.33 1030.55 1030.76 1030.96 1031.17 1031.38 1031.62 1031.89 1032.19 1032.53 1032.89
1032.40 1032.96 1033.42 1033.72 1033.84 1033.77 1033.50 1033.04 1032.41 1031.64 1030.78 1029.86 1028.93 1028.06 1027.28 1026.64 1026.17 1025.87 1025.75 1025.80 1025.97 1026.25 1026.58 1026.93 1027.28 1027.60 1027.89 1028.15 1028.38 1028.60 1028.82 1029.03 1029.26 1029.48 1029.70 1029.92 1030.14 1030.36 1030.61 1030.88 1031.21 1031.58 1032.00 1032.44
1032.35 1032.90 1033.35 1033.69 1033.86 1033.86 1033.65 1033.24 1032.62 1031.83 1030.90 1029.88 1028.83 1027.83 1026.92 1026.18 1025.64 1025.31 1025.20 1025.27 1025.49 1025.81 1026.18 1026.56 1026.90 1027.20 1027.44 1027.64 1027.82 1027.98 1028.14 1028.32 1028.52 1028.73 1028.95 1029.17 1029.40 1029.65 1029.92 1030.24 1030.61 1031.03 1031.51 1032.00
1032.35 1032.84 1033.29 1033.64 1033.86 1033.91 1033.77 1033.41 1032.84 1032.05 1031.10 1030.03 1028.91 1027.82 1026.83 1026.01 1025.40 1025.03 1024.90 1024.97 1025.21 1025.54 1025.92 1026.30 1026.63 1026.89 1027.09 1027.24 1027.36 1027.46 1027.59 1027.73 1027.90 1028.10 1028.32 1028.55 1028.80 1029.07 1029.37 1029.72 1030.13 1030.59 1031.09 1031.61
1032.50 1032.94 1033.34 1033.68 1033.91 1033.99 1033.89 1033.58 1033.03 1032.27 1031.32 1030.24 1029.09 1027.95 1026.90 1026.03 1025.37 1024.97 1024.80 1024.85 1025.07 1025.39 1025.75 1026.10 1026.40 1026.63 1026.79 1026.89 1026.96 1027.03 1027.11 1027.23 1027.39 1027.59 1027.81 1028.06 1028.34 1028.64 1028.98 1029.36 1029.79 1030.26 1030.78 1031.29
1032.85 1033.23 1033.58 1033.87 1034.06 1034.12 1034.01 1033.68 1033.14 1032.38 1031.44 1030.35 1029.20 1028.05 1026.99 1026.09 1025.41 1024.98 1024.78 1024.80 1024.98 1025.26 1025.59 1025.90 1026.16 1026.35 1026.47 1026.53 1026.57 1026.61 1026.68 1026.79 1026.95 1027.15 1027.40 1027.68 1027.98 1028.32 1028.69 1029.10 1029.55 1030.04 1030.54 1031.04
1033.40 1033.71 1033.98 1034.18 1034.28 1034.25 1034.06 1033.67 1033.07 1032.29 1031.33 1030.25 1029.10 1027.97 1026.93 1026.05 1025.38 1024.93 1024.72 1024.70 1024.84 1025.08 1025.36 1025.62 1025.84 1025.99 1026.08 1026.13 1026.15 1026.19 1026.25 1026.36 1026.53 1026.76 1027.03 1027.34 1027.68 1028.06 1028.47 1028.91 1029.37 1029.86 1030.36 1030.83
1034.07 1034.31 1034.47 1034.55 1034.50 1034.31 1033.96 1033.44 1032.74 1031.88 1030.89 1029.80 1028.69 1027.60 1026.62 1025.79 1025.15 1024.73 1024.51 1024.48 1024.59 1024.78 1025.02 1025.24 1025.42 1025.54 1025.61 1025.65 1025.68 1025.71 1025.79 1025.92 1026.11 1026.36 1026.66 1027.00 1027.38 1027.80 1028.24 1028.71 1029.20 1029.69 1030.18 1030.64
1034.77 1034.93 1034.97 1034.87 1034.62 1034.22 1033.66 1032.95 1032.10 1031.13 1030.08 1028.99 1027.91 1026.89 1025.98 1025.24 1024.68 1024.31 1024.12 1024.10 1024.19 1024.35 1024.55 1024.73 1024.88 1024.99 1025.06 1025.10 1025.14 1025.20 1025.29 1025.44 1025.66 1025.93 1026.25 1026.63 1027.04 1027.49 1027.96 1028.45 1028.96 1029.47 1029.96 1030.41
1035.41 1035.47 1035.35 1035.05 1034.57 1033.91 1033.11 1032.17 1031.14 1030.04 1028.93 1027.84 1026.81 1025.88 1025.08 1024.45 1023.99 1023.71 1023.57 1023.57 1023.66 1023.81 1023.97 1024.13 1024.26 1024.37 1024.44 1024.50 1024.56 1024.64 1024.77 1024.95 1025.18 1025.47 1025.81 1026.21 1026.64 1027.10 1027.60 1028.12 1028.64 1029.16 1029.67 1030.13
1035.87 1035.82 1035.53 1035.01 1034.28 1033.37 1032.30 1031.14 1029.93 1028.72 1027.56 1026.48 1025.51 1024.69 1024.02 1023.53 1023.19 1023.00 1022.94 1022.97 1023.06 1023.20 1023.35 1023.48 1023.60 1023.70 1023.79 1023.87 1023.97 1024.09 1024.25 1024.45 1024.71 1025.01 1025.36 1025.75 1026.19 1026.66 1027.17 1027.69 1028.23 1028.77 1029.29 1029.76
1036.09 1035.90 1035.43 1034.70 1033.74 1032.58 1031.29 1029.94 1028.58 1027.29 1026.10 1025.06 1024.19 1023.49 1022.97 1022.62 1022.41 1022.31 1022.31 1022.38 1022.48 1022.60 1022.72 1022.84 1022.95 1023.05 1023.15 1023.26 1023.40 1023.56 1023.75 1023.98 1024.25 1024.57 1024.91 1025.30 1025.73 1026.19 1026.69 1027.21 1027.76 1028.30 1028.83 1029.32
1036.01 1035.67 1035.03 1034.11 1032.94 1031.59 1030.13 1028.64 1027.21 1025.88 1024.72 1023.76 1023.00 1022.44 1022.06 1021.85 1021.76 1021.75 1021.80 1021.88 1021.97 1022.07 1022.16 1022.24 1022.33 1022.43 1022.54 1022.69 1022.86 1023.06 1023.29 1023.55 1023.85 1024.16 1024.51 1024.88 1025.29 1025.73 1026.21 1026.72 1027.25 1027.79 1028.32 1028.82
1035.58 1035.10 1034.30 1033.22 1031.91 1030.44 1028.89 1027.35 1025.90 1024.61 1023.53 1022.67 1022.04 1021.63 1021.40 1021.30 1021.31 1021.36 1021.44 1021.51 1021.58 1021.63 1021.67 1021.71 1021.77 1021.86 1021.98 1022.14 1022.35 1022.59 1022.87 1023.16 1023.48 1023.81 1024.15 1024.51 1024.89 1025.31 1025.75 1026.24 1026.74 1027.26 1027.78 1028.28
1034.80 1034.17 1033.25 1032.06 1030.67 1029.15 1027.59 1026.08 1024.70 1023.51 1022.55 1021.83 1021.35 1021.08 1020.97 1020.98 1021.05 1021.14 1021.21 1021.26 1021.28 1021.26 1021.24 1021.23 1021.26 1021.32 1021.45 1021.63 1021.87 1022.15 1022.46 1022.79 1023.13 1023.47 1023.82 1024.17 1024.53 1024.92 1025.33 1025.78 1026.25 1026.75 1027.24 1027.71
1033.65 1032.89 1031.87 1030.63 1029.23 1027.74 1026.25 1024.84 1023.59 1022.55 1021.75 1021.20 1020.87 1020.73 1020.72 1020.80 1020.91 1021.01 1021.06 1021.07 1021.02 1020.94 1020.86 1020.79 1020.77 1020.81 1020.92 1021.12 1021.37 1021.69 1022.04 1022.40 1022.77 1023.13 1023.48 1023.83 1024.18 1024.54 1024.93 1025.34 1025.77 1026.22 1026.67 1027.11
1032.13 1031.26 1030.19 1028.94 1027.59 1026.20 1024.85 1023.61 1022.54 1021.69 1021.07 1020.68 1020.49 1020.46 1020.53 1020.66 1020.79 1020.87 1020.89 1020.85 1020.75 1020.61 1020.46 1020.34 1020.28 1020.29 1020.40 1020.59 1020.86 1021.19 1021.56 1021.96 1022.35 1022.73 1023.10 1023.45 1023.79 1024.13 1024.49 1024.86 1025.26 1025.66 1026.07 1026.47
1030.29 1029.34 1028.24 1027.03 1025.78 1024.54 1023.37 1022.34 1021.49 1020.84 1020.40 1020.17 1020.10 1020.16 1020.29 1020.44 1020.56 1020.63 1020.62 1020.54 1020.39 1020.21 1020.02 1019.87 1019.77 1019.76 1019.85 1020.03 1020.30 1020.64 1021.02 1021.43 1021.84 1022.23 1022.61 1022.97 1023.31 1023.64 1023.98 1024.32 1024.68 1025.04 1025.40 1025.76
1028.19 1027.17 1026.08 1024.96 1023.85 1022.79 1021.84 1021.04 1020.41 1019.96 1019.69 1019.59 1019.61 1019.73 1019.89 1020.05 1020.17 1020.22 1020.19 1020.09 1019.92 1019.72 1019.52 1019.35 1019.24 1019.22 1019.29 1019.46 1019.71 1020.04 1020.41 1020.82 1021.23 1021.63 1022.01 1022.37 1022.71 1023.03 1023.35 1023.67 1024.00 1024.32 1024.65 1024.97
1025.91 1024.86 1023.81 1022.80 1021.86 1021.02 1020.30 1019.72 1019.30 1019.04 1018.92 1018.92 1019.01 1019.16 1019.33 1019.48 1019.59 1019.63 1019.60 1019.49 1019.34 1019.15 1018.97 1018.81 1018.71 1018.68 1018.74 1018.88 1019.11 1019.41 1019.76 1020.14 1020.53 1020.92 1021.29 1021.65 1021.99 1022.31 1022.61 1022.91 1023.21 1023.50 1023.79 1024.08
Thickness
5568 5572 5566 5562 5563 5570 5572 5571 5569 5561 5554 5558 5562 5561 5560 5557 5555 5557 5556 5555 5554 5554 5553 5550 5549 5549 5549 5548 5549 5549 5549 5548 5549 5549 5550 5550 5551 5550 5550 5550 5549 5549 5548 5547
5570 5559 5549 5551 5557 5562 5566 5565 5561 5555 5551 5554 5556 5558 5559 5554 5553 5554 5553 5552 5552 5551 5549 5546 5545 5545 5544 5543 5543 5543 5542 5541 5541 5541 5541 5541 5541 5542 5542 5541 5540 5540 5539 5539
5561 5547 5544 5551 5556 5560 5557 5560 5556 5552 5549 5550 5555 5567 5561 5556 5551 5550 5549 5548 5547 5546 5545 5543 5541 5540 5539 5538 5537 5536 5536 5535 5534 5533 5533 5533 5532 5533 5534 5533 5533 5531 5530 5530
5546 5540 5544 5550 5549 5554 5556 5544 5544 5545 5555 5556 5551 5566 5568 5557 5553 5552 5550 5548 5546 5543 5540 5538 5536 5534 5534 5532 5531 5531 5530 5529 5528 5526 5526 5526 5527 5528 5528 5526 5524 5523 5521 5520
5539 5533 5541 5545 5539 5541 5544 5538 5540 5543 5546 5548 5547 5554 5570 5555 5557 5557 5553 5548 5546 5541 5537 5534 5531 5529 5528 5527 5526 5525 5524 5523 5522 5520 5519 5519 5519 5519 5519 5517 5516 5515 5513 5511
5530 5525 5527 5531 5531 5532 5534 5536 5537 5539 5546 5548 5543 5549 5566 5562 5560 5558 5553 5546 5542 5538 5534 5531 5528 5525 5524 5522 5520 5519 5518 5517 5515 5514 5513 5512 5512 5512 5512 5511 5509 5507 5505 5503
5536 5529 5523 5523 5533 5533 5536 5544 5549 5551 5549 5552 5533 5540 5560 5562 5555 5551 5548 5544 5540 5535 5531 5528 5525 5523 5520 5518 5516 5514 5513 5511 5510 5508 5507 5506 5506 5506 5506 5504 5502 5501 5498 5496
5543 5540 5523 5520 5525 5529 5530 5538 5547 5552 5552 5552 5530 5543 5562 5554 5547 5542 5540 5538 5535 5532 5528 5525 5522 5519 5517 5514 5511 5509 5507 5506 5504 5503 5502 5501 5500 5499 5499 5497 5495 5492 5490 5488
5545 5537 5517 5514 5514 5522 5529 5529 5522 5527 5506 5523 5547 5547 5552 5548 5545 5541 5538 5535 5533 5530 5525 5522 5518 5515 5513 5510 5507 5504 5502 5500 5499 5497 5496 5495 5493 5492 5491 5489 5486 5484 5482 5479
5531 5528 5518 5513 5514 5513 5518 5518 5519 5527 5534 5544 5548 5548 5559 5553 5550 5544 5539 5535 5531 5526 5522 5518 5515 5512 5509 5505 5502 5499 5496 5495 5493 5491 5490 5488 5487 5485 5483 5482 5479 5476 5473 5470
5520 5526 5519 5515 5514 5519 5512 5512 5514 5515 5515 5533 5542 5560 5559 5553 5548 5543 5538 5532 5528 5522 5518 5514 5511 5507 5503 5500 5497 5494 5492 5489 5488 5486 5484 5482 5480 5477 5475 5473 5471 5468 5465 5462
5511 5522 5521 5515 5502 5498 5507 5514 5515 5525 5512 5507 5524 5551 5550 5543 5539 5535 5533 5528 5522 5517 5514 5511 5506 5502 5499 5496 5493 5489 5487 5484 5482 5480 5477 5475 5473 5470 5468 5465 5463 5460 5457 5454
5508 5515 5527 5527 5511 5497 5500 5502 5503 5505 5507 5505 5520 5550 5542 5534 5531 5529 5527 5524 5519 5514 5511 5507 5502 5499 5495 5492 5489 5485 5482 5479 5476 5473 5471 5469 5466 5464 5461 5458 5455 5452 5450 5447
5505 5505 5522 5541 5537 5517 5504 5499 5497 5500 5509 5512 5519 5544 5546 5539 5534 5531 5526 5521 5517 5512 5508 5503 5500 5496 5491 5487 5484 5481 5477 5473 5470 5468 5465 5462 5459 5456 5453 5450 5448 5445 5441 5438
5500 5501 5491 5495 5493 5495 5500 5502 5497 5498 5513 5518 5535 5531 5544 5542 5534 5529 5524 5519 5514 5510 5506 5502 5497 5492 5487 5483 5479 5476 5472 5468 5465 5462 5459 5456 5452 5449 5446 5443 5440 5437 5433 5429
5490 5489 5480 5483 5482 5480 5484 5498 5498 5498 5503 5510 5516 5526 5541 5535 5526 5522 5519 5514 5511 5509 5505 5500 5494 5488 5484 5480 5476 5472 5468 5463 5459 5456 5454 5450 5446 5442 5439 5435 5431 5428 5425 5420
5481 5478 5490 5503 5471 5478 5506 5519 5507 5505 5509 5513 5520 5538 5537 5528 5523 5521 5517 5513 5510 5507 5503 5497 5492 5487 5482 5477 5472 5468 5463 5458 5453 5450 5447 5443 5439 5436 5432 5428 5424 5421 5416 5412
5472 5472 5477 5484 5481 5513 5548 5522 5520 5515 5517 5515 5524 5533 5529 5525 5520 5515 5511 5508 5507 5503 5499 5495 5489 5484 5478 5472 5467 5461 5456 5452 5447 5444 5440 5436 5432 5428 5424 5420 5417 5413 5408 5403
5469 5469 5470 5475 5495 5517 5532 5515 5508 5508 5525 5527 5521 5526 5523 5513 5508 5516 5513 5506 5503 5500 5495 5490 5484 5478 5472 5466 5461 5455 5450 5445 5441 5437 5433 5429 5424 5420 5416 5412 5408 5404 5400 5395
5453 5457 5466 5464 5493 5518 5547 5515 5503 5508 5526 5538 5523 5523 5518 5504 5513 5527 5513 5503 5498 5492 5486 5480 5475 5469 5464 5459 5453 5447 5443 5438 5434 5430 5426 5421 5417 5413 5409 5405 5400 5395 5391 5387
5444 5446 5455 5463 5483 5511 5527 5498 5496 5516 5543 5535 5523 5520 5512 5507 5519 5515 5503 5496 5490 5484 5478 5473 5468 5462 5458 5452 5445 5440 5436 5432 5428 5422 5417 5413 5409 5405 5400 5396 5391 5386 5381 5377
5468 5458 5452 5455 5467 5510 5509 5492 5510 5535 5529 5521 5516 5512 5507 5507 5504 5499 5494 5489 5482 5476 5470 5465 5460 5455 5449 5443 5438 5434 5429 5425 5418 5413 5409 5404 5400 5395 5391 5386 5381 5376 5371 5367
5475 5490 5487 5488 5518 5525 5509 5515 5518 5514 5514 5514 5511 5506 5501 5497 5496 5493 5488 5482 5476 5469 5463 5457 5452 5446 5441 5435 5430 5426 5422 5415 5409 5404 5399 5395 5390 5386 5381 5376 5372 5367 5362 5358
5470 5468 5473 5474 5502 5508 5504 5505 5504 5502 5503 5505 5502 5498 5493 5491 5490 5484 5478 5473 5467 5460 5454 5447 5441 5436 5432 5426 5420 5417 5412 5405 5400 5395 5391 5386 5381 5377 5371 5366 5362 5357 5353 5349
5486 5463 5465 5473 5495 5495 5502 5503 5506 5502 5496 5493 5491 5487 5486 5484 5480 5475 5471 5465 5459 5452 5446 5439 5433 5429 5424 5418 5412 5407 5401 5396 5391 5387 5382 5377 5372 5367 5362 5357 5353 5348 5345 5340
5481 5476 5482 5508 5514 5507 5516 5513 5505 5497 5494 5491 5485 5480 5477 5473 5472 5468 5463 5457 5451 5443 5437 5430 5425 5420 5415 5409 5404 5399 5393 5387 5383 5379 5374 5368 5363 5358 5353 5348 5343 5338 5334 5329